Boston College MA US WEATHERSTEM current weather conditions

sailwx.info

Wind from 244 at 6 knots gusting 13

Air temperature 5.3° C
Dewpoint -1.9° C

Last reported at 2019-Dec-05 18:40 UTC.
Time now 2019-Dec-05 19:21 UTC

Location: N 42°20' W 071°10'.
View on Google Maps.

See reports from other nearby stations

  
Tides and Currents Weather Stations Pressure Air Temp Water Temp Dewpoint Dewpoint Depression Visibility Wind Speed Wind Dir Waves Ship Positions
date/time (UTC)wind fromknots sea level pressurealtimeterstation pressurevisibilityair tempwater tempwave heightnotes
2019-Dec-05 18:40 244 6 gusting 13 5.3
2019-Dec-05 18:30 183 6 gusting 13 5.4
2019-Dec-05 18:20 261 10 gusting 12 5.5
2019-Dec-05 18:10 294 2 gusting 11 5.4
2019-Dec-05 18:00 272 10 gusting 13 5.2
2019-Dec-05 17:50 252 8 gusting 16 5.6
2019-Dec-05 17:40 317 7 gusting 15 5.9
2019-Dec-05 17:30 246 8 gusting 14 6.0
2019-Dec-05 17:20 242 3 gusting 16 6.0
2019-Dec-05 17:10 261 13 gusting 13 6.0
2019-Dec-05 17:00 257 4 gusting 13 5.7
2019-Dec-05 16:50 209 3 gusting 14 5.4
2019-Dec-05 16:40 256 7 gusting 15 5.4
2019-Dec-05 16:30 293 3 gusting 13 5.3
2019-Dec-05 16:20 322 7 gusting 16 5.2
2019-Dec-05 16:10 324 1 gusting 13 5.2
2019-Dec-05 16:00 240 6 gusting 13 4.9
2019-Dec-05 15:50 267 5 gusting 15 4.9
2019-Dec-05 15:40 248 6 gusting 19 4.7
2019-Dec-05 15:30 254 4 gusting 15 4.7
2019-Dec-05 15:20 272 7 gusting 17 4.4
2019-Dec-05 15:10 232 3 gusting 14 4.6
2019-Dec-05 15:00 259 3 gusting 18 4.3
2019-Dec-05 14:50 290 6 gusting 12 4.1
2019-Dec-05 14:40 249 3 gusting 10 3.8
2019-Dec-05 14:30 283 2 gusting 8 3.3
2019-Dec-05 14:20 277 2 gusting 8 2.9
2019-Dec-05 14:10 216 0 gusting 6 2.4
2019-Dec-05 14:00 263 2 gusting 8 2.1
2019-Dec-05 13:50 197 1 gusting 6 1.8
2019-Dec-05 13:40 224 6 gusting 7 1.6
2019-Dec-05 13:30 215 6 gusting 8 1.3
2019-Dec-05 13:20 200 4 gusting 6 1.1
2019-Dec-05 13:10 198 2 gusting 6 0.8
2019-Dec-05 13:00 197 2 gusting 7 0.7
2019-Dec-05 12:50 222 2 gusting 7 0.3
2019-Dec-05 12:40 196 4 gusting 7 0.2
2019-Dec-05 12:30 186 5 gusting 6 -0.1
2019-Dec-05 12:20 197 2 gusting 7 -0.2
2019-Dec-05 12:10 198 3 gusting 6 -0.3
2019-Dec-05 12:00 207 3 gusting 6 -0.3
2019-Dec-05 11:50 205 3 gusting 6 -0.3
2019-Dec-05 11:40 206 4 gusting 6 -0.3
2019-Dec-05 11:30 182 2 gusting 6 -0.3
2019-Dec-05 11:20 192 2 gusting 6 -0.4
2019-Dec-05 11:10 202 5 gusting 6 -0.3
2019-Dec-05 11:00 205 3 gusting 6 -0.3
2019-Dec-05 10:50 177 2 gusting 6 -0.2
2019-Dec-05 10:40 178 4 gusting 6 -0.1
2019-Dec-05 10:30 188 5 gusting 6 -0.1
2019-Dec-05 10:20 203 1 gusting 6 -0.1
2019-Dec-05 10:10 191 6 gusting 7 -0.1
2019-Dec-05 10:00 202 5 gusting 6 -0.1
2019-Dec-05 09:50 178 5 gusting 6 -0.1
2019-Dec-05 09:40 186 5 gusting 7 -0.1
2019-Dec-05 09:30 193 3 gusting 5 -0.0
2019-Dec-05 09:20 197 5 gusting 6 0.1
2019-Dec-05 09:10 188 4 gusting 6 0.1
2019-Dec-05 09:00 252 3 gusting 6 0.1
2019-Dec-05 08:50 192 6 gusting 6 0.1
2019-Dec-05 08:40 222 5 gusting 6 0.2
2019-Dec-05 08:30 202 4 gusting 6 0.2
2019-Dec-05 08:20 215 2 gusting 6 0.2
2019-Dec-05 08:10 206 3 gusting 5 0.2
2019-Dec-05 08:00 202 2 gusting 6 0.2
2019-Dec-05 07:50 223 3 gusting 6 0.2
2019-Dec-05 07:30 215 2 gusting 6 0.3
2019-Dec-05 07:20 202 3 gusting 6 0.3
2019-Dec-05 07:10 192 4 gusting 6 0.3
2019-Dec-05 07:00 217 2 gusting 5 0.3
2019-Dec-05 06:50 221 3 gusting 6 0.3
2019-Dec-05 06:40 225 5 gusting 6 0.3
2019-Dec-05 06:30 192 3 gusting 5 0.3
2019-Dec-05 06:20 225 2 gusting 6 0.3
2019-Dec-05 06:10 210 4 gusting 6 0.3
2019-Dec-05 06:00 211 3 gusting 6 0.4
2019-Dec-05 05:50 248 4 gusting 6 0.5
2019-Dec-05 05:40 236 4 gusting 5 0.6
2019-Dec-05 05:30 202 4 gusting 6 0.7
2019-Dec-05 05:20 204 2 gusting 6 0.7
2019-Dec-05 05:10 223 1 gusting 6 0.8
2019-Dec-05 05:00 219 2 gusting 6 0.9
2019-Dec-05 04:50 214 4 gusting 7 0.9
2019-Dec-05 04:40 187 5 gusting 7 1.1
2019-Dec-05 04:30 173 5 gusting 7 1.1
2019-Dec-05 04:20 185 5 gusting 7 1.1
2019-Dec-05 04:10 201 6 gusting 8 1.2
2019-Dec-05 04:00 196 3 gusting 6 1.3
2019-Dec-05 03:50 234 0 gusting 6 1.3
2019-Dec-05 03:40 233 3 gusting 6 1.3
2019-Dec-05 03:30 196 5 gusting 7 1.3
2019-Dec-05 03:20 229 3 gusting 9 1.4
2019-Dec-05 03:10 184 1 gusting 6 1.7
2019-Dec-05 03:00 221 4 gusting 6 1.8
2019-Dec-05 02:50 202 0 gusting 6 1.8
2019-Dec-05 02:40 192 2 gusting 7 1.7
2019-Dec-05 02:30 201 0 gusting 7 1.8
2019-Dec-05 02:20 217 0 gusting 6 1.8
2019-Dec-05 02:10 229 7 gusting 8 1.8
2019-Dec-05 02:00 218 2 gusting 7 1.8
2019-Dec-05 01:50 233 3 gusting 7 1.9
2019-Dec-05 01:40 218 4 gusting 6 2.0
2019-Dec-05 01:30 221 0 gusting 7 2.0
2019-Dec-05 01:20 235 5 gusting 7 1.9
2019-Dec-05 01:10 238 6 gusting 9 1.9
2019-Dec-05 01:00 190 6 gusting 7 2.0
2019-Dec-05 00:50 200 2 gusting 6 2.0
2019-Dec-05 00:40 185 3 gusting 7 2.1
2019-Dec-05 00:30 184 4 gusting 7 2.2
2019-Dec-05 00:20 267 1 gusting 9 2.1
2019-Dec-05 00:10 205 6 gusting 10 2.0
2019-Dec-05 00:00 199 5 gusting 10 1.8
2019-Dec-04 23:50 193 6 gusting 9 1.8
2019-Dec-04 23:40 196 4 gusting 7 1.8
2019-Dec-04 23:30 205 4 gusting 7 1.8
2019-Dec-04 23:20 191 6 gusting 7 1.8
2019-Dec-04 23:10 203 4 gusting 7 1.8
2019-Dec-04 23:00 198 6 gusting 7 1.8
2019-Dec-04 22:50 200 2 gusting 6 1.8
2019-Dec-04 22:40 182 6 gusting 6 1.8
2019-Dec-04 22:30 177 3 gusting 6 1.8
2019-Dec-04 22:20 194 5 gusting 6 1.8
2019-Dec-04 22:10 194 5 gusting 6 1.8
2019-Dec-04 22:00 190 4 gusting 5 1.9
2019-Dec-04 21:50 198 4 gusting 6 1.9
2019-Dec-04 21:40 194 0 gusting 5 2.1
2019-Dec-04 21:30 193 2 gusting 6 2.1
2019-Dec-04 21:20 181 4 gusting 5 2.2
2019-Dec-04 21:10 190 5 gusting 6 2.2
2019-Dec-04 21:00 252 2 gusting 6 2.2
2019-Dec-04 20:50 200 3 gusting 6 2.2
2019-Dec-04 20:40 194 3 gusting 6 2.3
2019-Dec-04 20:30 207 3 gusting 5 2.4
2019-Dec-04 20:20 207 4 gusting 6 2.5
2019-Dec-04 20:10 194 4 gusting 6 2.5
2019-Dec-04 20:00 207 4 gusting 6 2.6
2019-Dec-04 19:50 205 2 gusting 8 2.4
2019-Dec-04 19:40 196 1 gusting 8 2.4
2019-Dec-04 19:30 189 6 gusting 7 2.4
2019-Dec-04 19:20 180 4 gusting 7 2.5
2019-Dec-04 19:10 164 6 gusting 6 2.5
2019-Dec-04 19:00 176 2 gusting 7 2.3
2019-Dec-04 18:50 208 2 gusting 7 2.2
2019-Dec-04 18:40 161 7 gusting 7 2.3
2019-Dec-04 18:30 213 7 gusting 8 2.2
2019-Dec-04 18:20 190 1 gusting 6 2.2
2019-Dec-04 18:10 211 7 gusting 8 2.2
2019-Dec-04 18:00 217 4 gusting 8 2.0
2019-Dec-04 17:50 152 4 gusting 7 2.1
2019-Dec-04 17:40 194 6 gusting 8 2.1
2019-Dec-04 17:30 074 2 gusting 9 2.1
2019-Dec-04 17:20 229 6 gusting 8 2.1
2019-Dec-04 17:10 223 3 gusting 8 1.9
2019-Dec-04 17:00 205 5 gusting 10 1.8
2019-Dec-04 16:50 204 1 gusting 10 1.7
2019-Dec-04 16:40 181 4 gusting 10 1.5
2019-Dec-04 16:30 161 6 gusting 9 1.4
2019-Dec-04 16:20 204 6 gusting 11 1.2
2019-Dec-04 16:10 173 2 gusting 8 1.3
2019-Dec-04 16:00 208 6 gusting 9 1.4
2019-Dec-04 15:50 275 5 gusting 9 1.2
2019-Dec-04 15:40 188 6 gusting 8 1.0
2019-Dec-04 15:30 198 3 gusting 8 0.8
2019-Dec-04 15:20 224 5 gusting 11 0.7
2019-Dec-04 15:10 176 2 gusting 8 0.3
2019-Dec-04 15:00 202 6 gusting 8 0.1
2019-Dec-04 14:50 207 4 gusting 7 0.2
2019-Dec-04 14:40 285 1 gusting 8 -0.2
2019-Dec-04 14:30 179 6 gusting 10 -0.7
2019-Dec-04 14:20 196 6 gusting 8 -0.8
2019-Dec-04 14:10 190 6 gusting 9 -0.9
2019-Dec-04 14:00 177 6 gusting 11 -0.9
2019-Dec-04 13:50 195 3 gusting 7 -1.2
2019-Dec-04 13:40 207 3 gusting 9 -1.7
2019-Dec-04 13:30 173 6 gusting 8 -1.9
2019-Dec-04 13:20 210 4 gusting 6 -2.1
2019-Dec-04 13:10 198 4 gusting 6 -2.3
2019-Dec-04 13:00 197 3 gusting 6 -2.8
2019-Dec-04 12:50 215 3 gusting 6 -2.9
2019-Dec-04 12:40 176 3 gusting 7 -2.8
2019-Dec-04 12:30 171 5 gusting 6 -2.8
2019-Dec-04 12:20 218 4 gusting 7 -2.9
2019-Dec-04 12:10 213 5 gusting 7 -2.9
2019-Dec-04 12:00 202 6 gusting 7 -2.9
2019-Dec-04 11:50 181 5 gusting 8 -2.9
2019-Dec-04 11:40 190 7 gusting 7 -3.0
2019-Dec-04 11:30 190 6 gusting 7 -3.1
2019-Dec-04 11:20 187 8 gusting 8 -3.0
2019-Dec-04 11:10 217 3 gusting 6 -2.8
2019-Dec-04 11:00 178 4 gusting 5 -2.6
2019-Dec-04 10:50 177 2 gusting 5 -2.5
2019-Dec-04 10:40 184 2 gusting 4 -2.3
2019-Dec-04 10:30 186 1 gusting 5 -2.3
2019-Dec-04 10:20 198 3 gusting 6 -2.2
2019-Dec-04 10:10 188 2 gusting 5 -2.2
2019-Dec-04 10:00 214 1 gusting 6 -2.3
2019-Dec-04 09:50 201 1 gusting 6 -2.3
2019-Dec-04 09:40 215 4 gusting 5 -2.4
2019-Dec-04 09:30 196 4 gusting 6 -2.4
2019-Dec-04 09:20 192 4 gusting 8 -2.5
2019-Dec-04 09:10 233 4 gusting 7 -2.7
2019-Dec-04 09:00 197 4 gusting 9 -2.8
2019-Dec-04 08:50 229 3 gusting 6 -2.7
2019-Dec-04 08:40 215 2 gusting 8 -2.7
2019-Dec-04 08:30 190 5 gusting 6 -2.7
2019-Dec-04 08:20 206 2 gusting 4 -2.6
2019-Dec-04 08:10 226 2 gusting 5 -2.4
2019-Dec-04 08:00 231 1 gusting 5 -2.6
2019-Dec-04 07:50 248 3 gusting 5 -2.6
2019-Dec-04 07:40 200 2 gusting 6 -2.6
2019-Dec-04 07:30 182 5 gusting 6 -2.2
2019-Dec-04 07:20 196 2 gusting 6 -1.9
2019-Dec-04 07:10 279 1 gusting 7 -1.7
2019-Dec-04 07:00 214 4 gusting 6 -1.7
2019-Dec-04 06:50 291 7 gusting 8 -1.7
2019-Dec-04 06:40 254 3 gusting 10 -1.6
2019-Dec-04 06:30 261 3 gusting 10 -1.7
2019-Dec-04 06:20 270 2 gusting 10 -1.7
2019-Dec-04 06:10 285 5 gusting 9 -1.8
2019-Dec-04 06:00 272 6 gusting 11 -1.9
2019-Dec-04 05:50 250 3 gusting 10 -2.0
2019-Dec-04 05:40 178 4 gusting 9 -1.9
2019-Dec-04 05:30 242 5 gusting 11 -2.0
2019-Dec-04 05:20 235 4 gusting 8 -2.1
2019-Dec-04 05:10 245 6 gusting 7 -2.1
2019-Dec-04 05:00 236 2 gusting 6 -2.1
2019-Dec-04 04:50 224 4 gusting 6 -2.2
2019-Dec-04 04:40 229 3 gusting 5 -2.1
2019-Dec-04 04:30 209 2 gusting 3 -1.9
2019-Dec-04 04:20 184 1 gusting 4 -1.7
2019-Dec-04 04:10 230 1 gusting 6 -1.6
2019-Dec-04 04:00 261 2 gusting 5 -1.5
2019-Dec-04 03:50 225 1 gusting 6 -1.5
2019-Dec-04 03:40 288 2 gusting 4 -1.3
2019-Dec-04 03:30 261 2 gusting 13 -1.4
2019-Dec-04 03:20 302 4 gusting 13 -1.6
2019-Dec-04 03:10 288 2 gusting 9 -1.6
2019-Dec-04 03:00 289 3 gusting 10 -1.5
2019-Dec-04 02:50 270 7 gusting 8 -1.5
2019-Dec-04 02:40 255 1 gusting 6 -1.4
2019-Dec-04 02:30 279 6 gusting 9 -1.5
2019-Dec-04 02:20 255 2 gusting 9 -1.6
2019-Dec-04 02:10 302 2 gusting 7 -1.6
2019-Dec-04 02:00 260 2 gusting 6 -1.4
2019-Dec-04 01:50 239 2 gusting 6 -1.4
2019-Dec-04 01:40 279 0 gusting 7 -1.3
2019-Dec-04 01:30 250 2 gusting 6 -1.3
2019-Dec-04 01:20 210 0 gusting 7 -1.3
2019-Dec-04 01:10 294 3 gusting 4 -1.1
2019-Dec-04 01:00 205 2 gusting 6 -1.1
2019-Dec-04 00:50 233 0 gusting 7 -0.9
2019-Dec-04 00:40 348 2 gusting 8 -0.8
2019-Dec-04 00:30 292 3 gusting 6 -0.7
2019-Dec-04 00:20 266 5 gusting 13 -0.7
2019-Dec-04 00:10 296 6 gusting 10 -0.7
2019-Dec-04 00:00 265 5 gusting 10 -0.6
2019-Dec-03 23:50 254 4 gusting 12 -0.4
2019-Dec-03 23:40 263 3 gusting 13 -0.4
2019-Dec-03 23:30 269 3 gusting 20 -0.4
2019-Dec-03 23:20 264 3 gusting 14 -0.4
2019-Dec-03 23:10 321 3 gusting 13 -0.4
2019-Dec-03 23:00 309 4 gusting 9 -0.4
2019-Dec-03 22:50 290 3 gusting 10 -0.4
2019-Dec-03 22:40 280 8 gusting 12 -0.4
2019-Dec-03 22:30 257 7 gusting 11 -0.4
2019-Dec-03 22:20 304 3 gusting 13 -0.3
2019-Dec-03 22:10 304 2 gusting 11 -0.3
2019-Dec-03 22:00 281 6 gusting 10 -0.3
2019-Dec-03 21:50 286 8 gusting 13 -0.3
2019-Dec-03 21:40 310 7 gusting 12 -0.3
2019-Dec-03 21:30 311 8 gusting 17 -0.3
2019-Dec-03 21:20 295 12 gusting 15 -0.3
2019-Dec-03 21:10 276 6 gusting 19 -0.4
2019-Dec-03 21:00 293 8 gusting 15 -0.3
2019-Dec-03 20:50 289 9 gusting 16 -0.3
2019-Dec-03 20:40 302 4 gusting 17 -0.4
2019-Dec-03 20:30 294 9 gusting 19 -0.5
2019-Dec-03 20:20 297 6 gusting 21 -0.6
2019-Dec-03 20:10 285 6 gusting 16 -0.7
2019-Dec-03 20:00 289 7 gusting 16 -0.7
2019-Dec-03 19:50 294 4 gusting 14 -0.6
2019-Dec-03 19:40 292 6 gusting 16 -0.6
2019-Dec-03 19:30 254 7 gusting 15 -0.6
2019-Dec-03 19:20 288 12 gusting 18 -0.4
2019-Dec-03 19:10 276 9 gusting 14 -0.3
2019-Dec-03 19:00 286 8 gusting 16 -0.3